Time,TemperatureF,DewpointF,PressureIn,WindDirection,WindDirectionDegrees,WindSpeedMPH,WindSpeedGustMPH,Humidity,HourlyPrecipIn,Conditions,Clouds,dailyrainin,SoftwareType,DateUTC
2013-01-19 00:00:00,34.9,25.0,30.00,SW,219,20.0,20.0,67,0.00,,,0.00,Wunderground v.1.15,2013-01-19 05:00:00,
2013-01-19 00:02:00,35.0,25.1,30.00,SW,221,20.0,37.0,67,0.00,,,0.00,Wunderground v.1.15,2013-01-19 05:02:00,
2013-01-19 00:04:00,35.0,24.8,30.00,SW,227,19.0,37.0,66,0.00,,,0.00,Wunderground v.1.15,2013-01-19 05:04:00,
2013-01-19 00:05:00,35.0,25.1,30.00,WSW,246,19.0,37.0,67,0.00,,,0.00,Wunderground v.1.15,2013-01-19 05:05:00,
2013-01-19 00:10:00,35.0,25.1,30.00,SW,216,18.0,37.0,67,0.00,,,0.00,Wunderground v.1.15,2013-01-19 05:10:00,
2013-01-19 00:11:00,34.9,25.0,30.00,SW,223,18.0,37.0,67,0.00,,,0.00,Wunderground v.1.15,2013-01-19 05:11:00,
2013-01-19 00:14:00,34.9,25.0,29.99,SW,219,18.0,37.0,67,0.00,,,0.00,Wunderground v.1.15,2013-01-19 05:14:00,
2013-01-19 00:15:00,34.9,25.4,30.00,SW,216,18.0,37.0,68,0.00,,,0.00,Wunderground v.1.15,2013-01-19 05:15:00,
2013-01-19 00:18:00,35.0,25.1,29.99,SW,219,18.0,37.0,67,0.00,,,0.00,Wunderground v.1.15,2013-01-19 05:18:00,
2013-01-19 00:20:00,35.0,25.5,29.99,SW,220,18.0,18.0,68,0.00,,,0.00,Wunderground v.1.15,2013-01-19 05:20:00,
2013-01-19 00:23:00,35.0,25.1,29.99,SW,230,18.0,37.0,67,0.00,,,0.00,Wunderground v.1.15,2013-01-19 05:23:00,
2013-01-19 00:24:00,35.0,25.1,29.99,SW,227,18.0,37.0,67,0.00,,,0.00,Wunderground v.1.15,2013-01-19 05:24:00,
2013-01-19 00:25:00,35.0,25.1,29.99,SW,216,18.0,37.0,67,0.00,,,0.00,Wunderground v.1.15,2013-01-19 05:25:00,
2013-01-19 00:27:00,35.0,25.1,29.99,SW,223,18.0,37.0,67,0.00,,,0.00,Wunderground v.1.15,2013-01-19 05:27:00,
2013-01-19 00:28:00,35.1,25.2,29.99,SW,227,18.0,37.0,67,0.00,,,0.00,Wunderground v.1.15,2013-01-19 05:28:00,
2013-01-19 00:30:00,35.1,25.2,29.99,SW,218,18.0,37.0,67,0.00,,,0.00,Wunderground v.1.15,2013-01-19 05:30:00,
2013-01-19 00:35:00,35.2,25.3,29.99,WSW,237,18.0,37.0,67,0.00,,,0.00,Wunderground v.1.15,2013-01-19 05:35:00,
2013-01-19 00:37:00,35.2,25.3,29.99,SW,216,18.0,37.0,67,0.00,,,0.00,Wunderground v.1.15,2013-01-19 05:37:00,
2013-01-19 00:38:00,35.2,25.7,29.99,SSW,210,18.0,37.0,68,0.00,,,0.00,Wunderground v.1.15,2013-01-19 05:38:00,
2013-01-19 00:39:00,35.1,25.2,29.98,SSW,213,18.0,37.0,67,0.00,,,0.00,Wunderground v.1.15,2013-01-19 05:39:00,
2013-01-19 00:41:00,35.1,25.6,29.98,SW,219,18.0,37.0,68,0.00,,,0.00,Wunderground v.1.15,2013-01-19 05:41:00,
2013-01-19 00:43:00,35.2,25.3,29.98,SW,224,18.0,37.0,67,0.00,,,0.00,Wunderground v.1.15,2013-01-19 05:43:00,
2013-01-19 00:46:00,35.2,25.3,29.98,SW,228,18.0,37.0,67,0.00,,,0.00,Wunderground v.1.15,2013-01-19 05:46:00,
2013-01-19 00:47:00,35.2,25.3,29.98,SW,220,18.0,37.0,67,0.00,,,0.00,Wunderground v.1.15,2013-01-19 05:47:00,
2013-01-19 00:50:00,35.3,25.4,29.98,SW,223,18.0,18.0,67,0.00,,,0.00,Wunderground v.1.15,2013-01-19 05:50:00,
2013-01-19 00:52:00,35.3,25.4,29.98,SSW,201,18.0,37.0,67,0.00,,,0.00,Wunderground v.1.15,2013-01-19 05:52:00,
2013-01-19 00:57:00,35.3,25.4,29.98,SW,227,18.0,37.0,67,0.00,,,0.00,Wunderground v.1.15,2013-01-19 05:57:00,
2013-01-19 00:58:00,35.3,25.4,29.98,SW,220,19.0,37.0,67,0.00,,,0.00,Wunderground v.1.15,2013-01-19 05:58:00,
2013-01-19 01:00:00,35.3,25.4,29.98,SW,223,19.0,37.0,67,0.00,,,0.00,Wunderground v.1.15,2013-01-19 06:00:00,
2013-01-19 01:01:00,35.4,25.9,29.98,SW,223,18.0,37.0,68,0.00,,,0.00,Wunderground v.1.15,2013-01-19 06:01:00,
2013-01-19 01:05:00,35.4,25.9,29.98,SW,219,18.0,37.0,68,0.00,,,0.00,Wunderground v.1.15,2013-01-19 06:05:00,
2013-01-19 01:06:00,35.4,25.5,29.98,SW,216,18.0,37.0,67,0.00,,,0.00,Wunderground v.1.15,2013-01-19 06:06:00,
2013-01-19 01:08:00,35.5,25.6,29.98,SW,221,18.0,37.0,67,0.00,,,0.00,Wunderground v.1.15,2013-01-19 06:08:00,
2013-01-19 01:10:00,35.5,25.6,29.98,SW,218,17.0,37.0,67,0.00,,,0.00,Wunderground v.1.15,2013-01-19 06:10:00,
2013-01-19 01:13:00,35.5,26.0,29.98,SW,223,17.0,37.0,68,0.00,,,0.00,Wunderground v.1.15,2013-01-19 06:13:00,
2013-01-19 01:14:00,35.5,26.0,29.98,SW,219,17.0,37.0,68,0.00,,,0.00,Wunderground v.1.15,2013-01-19 06:14:00,
2013-01-19 01:18:00,35.5,26.0,29.97,SW,218,16.0,37.0,68,0.00,,,0.00,Wunderground v.1.15,2013-01-19 06:18:00,
2013-01-19 01:19:00,35.6,25.7,29.97,SW,216,16.0,16.0,67,0.00,,,0.00,Wunderground v.1.15,2013-01-19 06:19:00,
2013-01-19 01:22:00,35.6,25.7,29.97,WSW,237,15.0,37.0,67,0.00,,,0.00,Wunderground v.1.15,2013-01-19 06:22:00,
2013-01-19 01:23:00,35.6,25.7,29.97,SSW,213,15.0,37.0,67,0.00,,,0.00,Wunderground v.1.15,2013-01-19 06:23:00,
2013-01-19 01:25:00,35.6,25.7,29.97,SW,217,15.0,37.0,67,0.00,,,0.00,Wunderground v.1.15,2013-01-19 06:25:00,
2013-01-19 01:27:00,35.7,25.8,29.97,SSW,209,16.0,37.0,67,0.00,,,0.00,Wunderground v.1.15,2013-01-19 06:27:00,
2013-01-19 01:29:00,35.7,25.8,29.97,WSW,238,16.0,37.0,67,0.00,,,0.00,Wunderground v.1.15,2013-01-19 06:29:00,
2013-01-19 01:30:00,35.7,25.4,29.97,SW,228,16.0,37.0,66,0.00,,,0.00,Wunderground v.1.15,2013-01-19 06:30:00,
2013-01-19 01:34:00,35.8,25.9,29.97,WSW,246,17.0,37.0,67,0.00,,,0.00,Wunderground v.1.15,2013-01-19 06:34:00,
2013-01-19 01:35:00,35.8,25.5,29.97,SSW,211,17.0,37.0,66,0.00,,,0.00,Wunderground v.1.15,2013-01-19 06:35:00,
2013-01-19 01:36:00,35.8,25.9,29.97,SW,223,18.0,37.0,67,0.00,,,0.00,Wunderground v.1.15,2013-01-19 06:36:00,
2013-01-19 01:39:00,35.9,25.6,29.97,SW,224,18.0,37.0,66,0.00,,,0.00,Wunderground v.1.15,2013-01-19 06:39:00,
2013-01-19 01:42:00,35.9,26.0,29.97,WSW,237,18.0,37.0,67,0.00,,,0.00,Wunderground v.1.15,2013-01-19 06:42:00,
2013-01-19 01:43:00,35.9,26.0,29.97,SSW,199,18.0,37.0,67,0.00,,,0.00,Wunderground v.1.15,2013-01-19 06:43:00,
2013-01-19 01:44:00,35.9,26.0,29.97,SW,234,18.0,37.0,67,0.00,,,0.00,Wunderground v.1.15,2013-01-19 06:44:00,
2013-01-19 01:45:00,35.9,26.0,29.97,SW,216,17.0,37.0,67,0.00,,,0.00,Wunderground v.1.15,2013-01-19 06:45:00,
2013-01-19 01:47:00,35.9,26.4,29.97,SW,223,17.0,37.0,68,0.00,,,0.00,Wunderground v.1.15,2013-01-19 06:47:00,
2013-01-19 01:49:00,35.9,26.0,29.97,SW,220,16.0,37.0,67,0.00,,,0.00,Wunderground v.1.15,2013-01-19 06:49:00,
2013-01-19 01:53:00,35.9,26.4,29.97,West,259,16.0,37.0,68,0.00,,,0.00,Wunderground v.1.15,2013-01-19 06:53:00,
2013-01-19 01:56:00,35.9,26.0,29.97,SW,235,16.0,37.0,67,0.00,,,0.00,Wunderground v.1.15,2013-01-19 06:56:00,
2013-01-19 01:57:00,35.9,26.0,29.97,SW,230,16.0,37.0,67,0.00,,,0.00,Wunderground v.1.15,2013-01-19 06:57:00,
2013-01-19 01:58:00,35.9,26.0,29.97,SSW,209,16.0,37.0,67,0.00,,,0.00,Wunderground v.1.15,2013-01-19 06:58:00,
2013-01-19 02:02:00,36.0,26.1,29.97,SW,217,16.0,37.0,67,0.00,,,0.00,Wunderground v.1.15,2013-01-19 07:02:00,
2013-01-19 02:05:00,36.0,26.1,29.97,SW,225,16.0,37.0,67,0.00,,,0.00,Wunderground v.1.15,2013-01-19 07:05:00,
2013-01-19 02:06:00,35.9,26.0,29.97,SW,223,16.0,37.0,67,0.00,,,0.00,Wunderground v.1.15,2013-01-19 07:06:00,
2013-01-19 02:08:00,35.9,26.0,29.97,SW,223,17.0,37.0,67,0.00,,,0.00,Wunderground v.1.15,2013-01-19 07:08:00,
2013-01-19 02:12:00,36.0,26.1,29.97,SW,218,16.0,37.0,67,0.00,,,0.00,Wunderground v.1.15,2013-01-19 07:12:00,
2013-01-19 02:14:00,36.0,26.1,29.97,SW,228,16.0,37.0,67,0.00,,,0.00,Wunderground v.1.15,2013-01-19 07:14:00,
2013-01-19 02:17:00,36.0,26.1,29.97,WSW,244,16.0,37.0,67,0.00,,,0.00,Wunderground v.1.15,2013-01-19 07:17:00,
2013-01-19 02:21:00,36.1,25.8,29.97,SW,219,16.0,37.0,66,0.00,,,0.00,Wunderground v.1.15,2013-01-19 07:21:00,
2013-01-19 02:22:00,36.1,26.2,29.97,SSW,212,16.0,37.0,67,0.00,,,0.00,Wunderground v.1.15,2013-01-19 07:22:00,
2013-01-19 02:23:00,36.1,26.2,29.97,SW,223,16.0,37.0,67,0.00,,,0.00,Wunderground v.1.15,2013-01-19 07:23:00,
2013-01-19 02:27:00,36.2,25.9,29.97,SW,220,17.0,37.0,66,0.00,,,0.00,Wunderground v.1.15,2013-01-19 07:27:00,
2013-01-19 02:28:00,36.2,25.9,29.97,SSW,211,17.0,37.0,66,0.00,,,0.00,Wunderground v.1.15,2013-01-19 07:28:00,
2013-01-19 02:30:00,36.1,26.2,29.97,SW,214,16.0,37.0,67,0.00,,,0.00,Wunderground v.1.15,2013-01-19 07:30:00,
2013-01-19 02:33:00,36.3,26.0,29.97,SW,223,16.0,37.0,66,0.00,,,0.00,Wunderground v.1.15,2013-01-19 07:33:00,
2013-01-19 02:35:00,36.3,26.0,29.97,SW,221,17.0,37.0,66,0.00,,,0.00,Wunderground v.1.15,2013-01-19 07:35:00,
2013-01-19 02:36:00,36.3,26.0,29.97,SW,227,17.0,37.0,66,0.00,,,0.00,Wunderground v.1.15,2013-01-19 07:36:00,
2013-01-19 02:38:00,36.3,26.0,29.97,SW,217,17.0,37.0,66,0.00,,,0.00,Wunderground v.1.15,2013-01-19 07:38:00,
2013-01-19 02:42:00,36.3,26.0,29.97,SW,220,17.0,37.0,66,0.00,,,0.00,Wunderground v.1.15,2013-01-19 07:42:00,
2013-01-19 02:44:00,36.3,26.4,29.97,SW,228,17.0,37.0,67,0.00,,,0.00,Wunderground v.1.15,2013-01-19 07:44:00,
2013-01-19 02:45:00,36.3,26.0,29.97,SW,223,16.0,37.0,66,0.00,,,0.00,Wunderground v.1.15,2013-01-19 07:45:00,
2013-01-19 02:46:00,36.3,26.0,29.97,SSW,210,16.0,37.0,66,0.00,,,0.00,Wunderground v.1.15,2013-01-19 07:46:00,
2013-01-19 02:48:00,36.3,26.4,29.97,SW,216,17.0,37.0,67,0.00,,,0.00,Wunderground v.1.15,2013-01-19 07:48:00,
2013-01-19 02:49:00,36.3,26.0,29.97,SW,227,17.0,37.0,66,0.00,,,0.00,Wunderground v.1.15,2013-01-19 07:49:00,
2013-01-19 02:50:00,36.3,26.4,29.97,SW,217,17.0,37.0,67,0.00,,,0.00,Wunderground v.1.15,2013-01-19 07:50:00,
2013-01-19 02:53:00,36.3,26.4,29.97,SW,223,16.0,37.0,67,0.00,,,0.00,Wunderground v.1.15,2013-01-19 07:53:00,
2013-01-19 02:54:00,36.3,26.4,29.97,SW,223,16.0,37.0,67,0.00,,,0.00,Wunderground v.1.15,2013-01-19 07:54:00,
2013-01-19 02:55:00,36.3,26.4,29.97,SW,216,16.0,37.0,67,0.00,,,0.00,Wunderground v.1.15,2013-01-19 07:55:00,
2013-01-19 02:56:00,36.2,26.3,29.97,SW,225,16.0,37.0,67,0.00,,,0.00,Wunderground v.1.15,2013-01-19 07:56:00,
2013-01-19 02:58:00,36.2,26.3,29.97,SW,230,15.0,37.0,67,0.00,,,0.00,Wunderground v.1.15,2013-01-19 07:58:00,
2013-01-19 03:01:00,36.2,26.3,29.97,SSW,211,15.0,37.0,67,0.00,,,0.00,Wunderground v.1.15,2013-01-19 08:01:00,
2013-01-19 03:02:00,36.2,26.3,29.97,SW,219,15.0,37.0,67,0.00,,,0.00,Wunderground v.1.15,2013-01-19 08:02:00,
2013-01-19 03:06:00,36.1,26.6,29.97,SW,224,14.0,37.0,68,0.00,,,0.00,Wunderground v.1.15,2013-01-19 08:06:00,
2013-01-19 03:07:00,36.1,26.2,29.97,SSW,207,15.0,37.0,67,0.00,,,0.00,Wunderground v.1.15,2013-01-19 08:07:00,
2013-01-19 03:12:00,36.1,26.2,29.97,SW,236,15.0,37.0,67,0.00,,,0.00,Wunderground v.1.15,2013-01-19 08:12:00,
2013-01-19 03:13:00,36.1,26.2,29.97,SW,234,15.0,37.0,67,0.00,,,0.00,Wunderground v.1.15,2013-01-19 08:13:00,
2013-01-19 03:15:00,36.1,26.6,29.97,SW,217,15.0,37.0,68,0.00,,,0.00,Wunderground v.1.15,2013-01-19 08:15:00,
2013-01-19 03:19:00,36.1,26.6,29.97,SW,218,14.0,37.0,68,0.00,,,0.00,Wunderground v.1.15,2013-01-19 08:19:00,
2013-01-19 03:20:00,36.0,26.5,29.97,SW,223,14.0,14.0,68,0.00,,,0.00,Wunderground v.1.15,2013-01-19 08:20:00,
2013-01-19 03:21:00,36.0,26.1,29.97,WSW,241,14.0,37.0,67,0.00,,,0.00,Wunderground v.1.15,2013-01-19 08:21:00,
2013-01-19 03:25:00,36.0,26.1,29.96,SW,219,14.0,37.0,67,0.00,,,0.00,Wunderground v.1.15,2013-01-19 08:25:00,
2013-01-19 03:26:00,36.0,26.1,29.97,WSW,253,14.0,37.0,67,0.00,,,0.00,Wunderground v.1.15,2013-01-19 08:26:00,
2013-01-19 03:29:00,36.0,26.5,29.97,SW,224,14.0,37.0,68,0.00,,,0.00,Wunderground v.1.15,2013-01-19 08:29:00,
2013-01-19 03:30:00,36.0,26.5,29.97,SW,227,15.0,37.0,68,0.00,,,0.00,Wunderground v.1.15,2013-01-19 08:30:00,
2013-01-19 03:31:00,36.0,26.5,29.97,SW,218,15.0,37.0,68,0.00,,,0.00,Wunderground v.1.15,2013-01-19 08:31:00,
2013-01-19 03:32:00,36.0,26.5,29.96,SW,216,15.0,37.0,68,0.00,,,0.00,Wunderground v.1.15,2013-01-19 08:32:00,
2013-01-19 03:35:00,36.0,26.8,29.97,SSW,210,14.0,37.0,69,0.00,,,0.00,Wunderground v.1.15,2013-01-19 08:35:00,
2013-01-19 03:39:00,36.0,26.5,29.97,SSW,207,13.0,13.0,68,0.00,,,0.00,Wunderground v.1.15,2013-01-19 08:39:00,
2013-01-19 03:40:00,36.0,26.8,29.97,WSW,237,13.0,37.0,69,0.00,,,0.00,Wunderground v.1.15,2013-01-19 08:40:00,
2013-01-19 03:44:00,35.9,26.7,29.97,SW,216,13.0,37.0,69,0.00,,,0.00,Wunderground v.1.15,2013-01-19 08:44:00,
2013-01-19 03:45:00,36.0,26.5,29.97,SW,223,13.0,37.0,68,0.00,,,0.00,Wunderground v.1.15,2013-01-19 08:45:00,
2013-01-19 03:46:00,36.0,26.8,29.97,SW,223,13.0,37.0,69,0.00,,,0.00,Wunderground v.1.15,2013-01-19 08:46:00,
2013-01-19 03:50:00,36.0,26.8,29.97,SW,234,12.0,37.0,69,0.00,,,0.00,Wunderground v.1.15,2013-01-19 08:50:00,
2013-01-19 03:52:00,36.0,26.8,29.97,SW,224,12.0,37.0,69,0.00,,,0.00,Wunderground v.1.15,2013-01-19 08:52:00,
2013-01-19 03:53:00,36.0,26.8,29.97,SW,223,12.0,37.0,69,0.00,,,0.00,Wunderground v.1.15,2013-01-19 08:53:00,
2013-01-19 03:55:00,36.0,26.8,29.97,SW,216,11.0,37.0,69,0.00,,,0.00,Wunderground v.1.15,2013-01-19 08:55:00,
2013-01-19 03:57:00,36.0,26.8,29.96,SW,217,11.0,37.0,69,0.00,,,0.00,Wunderground v.1.15,2013-01-19 08:57:00,
2013-01-19 03:58:00,36.0,26.8,29.96,SW,217,10.0,37.0,69,0.00,,,0.00,Wunderground v.1.15,2013-01-19 08:58:00,
2013-01-19 04:00:00,36.0,26.8,29.96,SW,219,11.0,11.0,69,0.00,,,0.00,Wunderground v.1.15,2013-01-19 09:00:00,
2013-01-19 04:02:00,36.0,26.8,29.96,SW,223,10.0,37.0,69,0.00,,,0.00,Wunderground v.1.15,2013-01-19 09:02:00,
2013-01-19 04:03:00,36.0,26.8,29.96,SW,216,11.0,37.0,69,0.00,,,0.00,Wunderground v.1.15,2013-01-19 09:03:00,
2013-01-19 04:06:00,36.0,26.8,29.96,SW,216,11.0,37.0,69,0.00,,,0.00,Wunderground v.1.15,2013-01-19 09:06:00,
2013-01-19 04:08:00,36.0,26.8,29.96,SW,218,11.0,37.0,69,0.00,,,0.00,Wunderground v.1.15,2013-01-19 09:08:00,
2013-01-19 04:10:00,36.0,26.8,29.96,SW,217,11.0,37.0,69,0.00,,,0.00,Wunderground v.1.15,2013-01-19 09:10:00,
2013-01-19 04:11:00,36.0,26.8,29.96,SW,218,11.0,37.0,69,0.00,,,0.00,Wunderground v.1.15,2013-01-19 09:11:00,
2013-01-19 04:12:00,35.9,26.7,29.96,SSW,212,12.0,37.0,69,0.00,,,0.00,Wunderground v.1.15,2013-01-19 09:12:00,
2013-01-19 04:15:00,35.9,26.7,29.96,SW,231,12.0,37.0,69,0.00,,,0.00,Wunderground v.1.15,2013-01-19 09:15:00,
2013-01-19 04:16:00,35.9,26.7,29.96,SW,216,12.0,37.0,69,0.00,,,0.00,Wunderground v.1.15,2013-01-19 09:16:00,
2013-01-19 04:18:00,36.0,26.8,29.96,SW,235,12.0,37.0,69,0.00,,,0.00,Wunderground v.1.15,2013-01-19 09:18:00,
2013-01-19 04:19:00,36.0,26.8,29.96,SW,219,12.0,37.0,69,0.00,,,0.00,Wunderground v.1.15,2013-01-19 09:19:00,
2013-01-19 04:21:00,36.0,26.8,29.96,SW,218,12.0,37.0,69,0.00,,,0.00,Wunderground v.1.15,2013-01-19 09:21:00,
2013-01-19 04:24:00,36.0,26.8,29.96,SW,231,12.0,37.0,69,0.00,,,0.00,Wunderground v.1.15,2013-01-19 09:24:00,
2013-01-19 04:27:00,35.9,27.1,29.96,SSW,210,10.0,37.0,70,0.00,,,0.00,Wunderground v.1.15,2013-01-19 09:27:00,
2013-01-19 04:28:00,35.9,27.1,29.96,WSW,244,9.0,37.0,70,0.00,,,0.00,Wunderground v.1.15,2013-01-19 09:28:00,
2013-01-19 04:29:00,35.9,27.1,29.96,SW,220,9.0,37.0,70,0.00,,,0.00,Wunderground v.1.15,2013-01-19 09:29:00,
2013-01-19 04:33:00,35.9,27.1,29.95,SW,221,8.0,37.0,70,0.00,,,0.00,Wunderground v.1.15,2013-01-19 09:33:00,
2013-01-19 04:36:00,35.9,26.7,29.96,SW,228,9.0,37.0,69,0.00,,,0.00,Wunderground v.1.15,2013-01-19 09:36:00,
2013-01-19 04:38:00,35.9,27.1,29.95,SW,230,9.0,37.0,70,0.00,,,0.00,Wunderground v.1.15,2013-01-19 09:38:00,
2013-01-19 04:42:00,35.9,27.1,29.95,SW,219,10.0,37.0,70,0.00,,,0.00,Wunderground v.1.15,2013-01-19 09:42:00,
2013-01-19 04:44:00,35.9,27.1,29.95,SW,219,10.0,37.0,70,0.00,,,0.00,Wunderground v.1.15,2013-01-19 09:44:00,
2013-01-19 04:45:00,36.0,27.2,29.95,SSW,209,11.0,37.0,70,0.00,,,0.00,Wunderground v.1.15,2013-01-19 09:45:00,
2013-01-19 04:46:00,36.0,27.2,29.95,SW,232,11.0,37.0,70,0.00,,,0.00,Wunderground v.1.15,2013-01-19 09:46:00,
2013-01-19 04:47:00,36.0,27.5,29.95,SW,218,11.0,37.0,71,0.00,,,0.00,Wunderground v.1.15,2013-01-19 09:47:00,
2013-01-19 04:50:00,36.1,27.3,29.95,SW,223,12.0,37.0,70,0.00,,,0.00,Wunderground v.1.15,2013-01-19 09:50:00,
2013-01-19 04:56:00,36.1,27.6,29.95,SW,223,11.0,37.0,71,0.00,,,0.00,Wunderground v.1.15,2013-01-19 09:56:00,
2013-01-19 04:58:00,36.2,27.4,29.95,SSW,212,11.0,37.0,70,0.00,,,0.00,Wunderground v.1.15,2013-01-19 09:58:00,
2013-01-19 05:02:00,36.3,27.8,29.94,SW,227,11.0,37.0,71,0.00,,,0.00,Wunderground v.1.15,2013-01-19 10:02:00,
2013-01-19 05:04:00,36.3,27.8,29.95,SSW,213,11.0,37.0,71,0.00,,,0.00,Wunderground v.1.15,2013-01-19 10:04:00,
2013-01-19 05:05:00,36.3,27.8,29.95,South,190,10.0,37.0,71,0.00,,,0.00,Wunderground v.1.15,2013-01-19 10:05:00,
2013-01-19 05:09:00,36.3,27.8,29.95,SW,214,10.0,37.0,71,0.00,,,0.00,Wunderground v.1.15,2013-01-19 10:09:00,
2013-01-19 05:11:00,36.4,27.9,29.95,SW,228,9.0,37.0,71,0.00,,,0.00,Wunderground v.1.15,2013-01-19 10:11:00,
2013-01-19 05:13:00,36.4,27.9,29.95,SSW,212,9.0,37.0,71,0.00,,,0.00,Wunderground v.1.15,2013-01-19 10:13:00,
2013-01-19 05:14:00,36.4,27.9,29.95,WSW,243,9.0,37.0,71,0.00,,,0.00,Wunderground v.1.15,2013-01-19 10:14:00,
2013-01-19 05:18:00,36.6,27.7,29.95,SW,225,9.0,37.0,70,0.00,,,0.00,Wunderground v.1.15,2013-01-19 10:18:00,
2013-01-19 05:19:00,36.7,28.2,29.95,SSW,212,10.0,10.0,71,0.00,,,0.00,Wunderground v.1.15,2013-01-19 10:19:00,
2013-01-19 07:47:00,37.1,28.9,29.95,SW,223,9.0,13.0,72,0.00,,,0.00,Wunderground v.1.15,2013-01-19 12:47:00,
2013-01-19 07:48:00,37.1,29.2,29.96,WSW,240,9.0,13.0,73,0.00,,,0.00,Wunderground v.1.15,2013-01-19 12:48:00,
2013-01-19 07:51:00,37.1,29.2,29.96,SW,218,9.0,10.0,73,0.00,,,0.00,Wunderground v.1.15,2013-01-19 12:51:00,
2013-01-19 07:52:00,37.1,29.2,29.96,West,263,9.0,11.0,73,0.00,,,0.00,Wunderground v.1.15,2013-01-19 12:52:00,
2013-01-19 07:56:00,37.1,29.2,29.95,SW,227,9.0,11.0,73,0.00,,,0.00,Wunderground v.1.15,2013-01-19 12:56:00,
2013-01-19 07:57:00,37.1,29.2,29.95,SSW,209,9.0,11.0,73,0.00,,,0.00,Wunderground v.1.15,2013-01-19 12:57:00,
2013-01-19 07:58:00,37.1,29.2,29.96,West,259,9.0,11.0,73,0.00,,,0.00,Wunderground v.1.15,2013-01-19 12:58:00,
2013-01-19 08:01:00,37.2,29.0,29.96,WSW,237,9.0,9.0,72,0.00,,,0.00,Wunderground v.1.15,2013-01-19 13:01:00,
2013-01-19 08:04:00,37.2,29.3,29.96,WSW,258,9.0,10.0,73,0.00,,,0.00,Wunderground v.1.15,2013-01-19 13:04:00,
2013-01-19 08:08:00,37.3,29.4,29.96,SSW,212,9.0,14.0,73,0.00,,,0.00,Wunderground v.1.15,2013-01-19 13:08:00,
2013-01-19 08:09:00,37.3,29.1,29.96,WSW,246,10.0,10.0,72,0.00,,,0.00,Wunderground v.1.15,2013-01-19 13:09:00,
2013-01-19 08:12:00,37.4,29.2,29.96,WSW,253,10.0,10.0,72,0.00,,,0.00,Wunderground v.1.15,2013-01-19 13:12:00,
2013-01-19 08:15:00,37.3,29.1,29.95,WSW,255,10.0,10.0,72,0.00,,,0.00,Wunderground v.1.15,2013-01-19 13:15:00,
2013-01-19 08:17:00,37.4,29.2,29.96,WSW,246,10.0,12.0,72,0.00,,,0.00,Wunderground v.1.15,2013-01-19 13:17:00,
2013-01-19 08:20:00,37.4,29.2,29.95,WSW,244,9.0,9.0,72,0.00,,,0.00,Wunderground v.1.15,2013-01-19 13:20:00,
2013-01-19 08:21:00,37.4,29.2,29.96,SW,225,9.0,10.0,72,0.00,,,0.00,Wunderground v.1.15,2013-01-19 13:21:00,
2013-01-19 08:23:00,37.4,29.2,29.96,WSW,245,10.0,12.0,72,0.00,,,0.00,Wunderground v.1.15,2013-01-19 13:23:00,
2013-01-19 08:27:00,37.3,29.4,29.96,WSW,237,9.0,13.0,73,0.00,,,0.00,Wunderground v.1.15,2013-01-19 13:27:00,
2013-01-19 08:28:00,37.3,29.4,29.96,SW,232,9.0,13.0,73,0.00,,,0.00,Wunderground v.1.15,2013-01-19 13:28:00,
2013-01-19 08:29:00,37.3,29.4,29.96,SW,221,9.0,9.0,73,0.00,,,0.00,Wunderground v.1.15,2013-01-19 13:29:00,
2013-01-19 08:31:00,37.3,29.4,29.95,West,261,9.0,15.0,73,0.00,,,0.00,Wunderground v.1.15,2013-01-19 13:31:00,
2013-01-19 08:34:00,37.3,29.4,29.96,WNW,299,8.0,15.0,73,0.00,,,0.00,Wunderground v.1.15,2013-01-19 13:34:00,
2013-01-19 08:35:00,37.3,29.4,29.96,WSW,238,8.0,15.0,73,0.00,,,0.00,Wunderground v.1.15,2013-01-19 13:35:00,
2013-01-19 08:38:00,37.3,29.4,29.96,SSW,213,8.0,15.0,73,0.00,,,0.00,Wunderground v.1.15,2013-01-19 13:38:00,
2013-01-19 08:39:00,37.3,29.4,29.96,SW,224,8.0,15.0,73,0.00,,,0.00,Wunderground v.1.15,2013-01-19 13:39:00,
2013-01-19 08:40:00,37.3,29.4,29.96,WSW,243,8.0,15.0,73,0.00,,,0.00,Wunderground v.1.15,2013-01-19 13:40:00,
2013-01-19 08:43:00,37.5,29.6,29.96,WSW,245,8.0,15.0,73,0.00,,,0.00,Wunderground v.1.15,2013-01-19 13:43:00,
2013-01-19 08:47:00,37.5,29.6,29.96,SW,223,8.0,15.0,73,0.00,,,0.00,Wunderground v.1.15,2013-01-19 13:47:00,
2013-01-19 08:49:00,37.5,29.6,29.96,SSW,210,8.0,15.0,73,0.00,,,0.00,Wunderground v.1.15,2013-01-19 13:49:00,
2013-01-19 08:53:00,37.7,29.8,29.96,SW,223,8.0,15.0,73,0.00,,,0.00,Wunderground v.1.15,2013-01-19 13:53:00,
2013-01-19 08:54:00,37.7,29.8,29.96,West,261,8.0,15.0,73,0.00,,,0.00,Wunderground v.1.15,2013-01-19 13:54:00,
2013-01-19 08:57:00,37.8,29.9,29.96,SW,235,8.0,15.0,73,0.00,,,0.00,Wunderground v.1.15,2013-01-19 13:57:00,
2013-01-19 08:58:00,37.9,30.0,29.96,West,261,9.0,15.0,73,0.00,,,0.00,Wunderground v.1.15,2013-01-19 13:58:00,
2013-01-19 09:00:00,37.9,30.0,29.96,SSW,204,9.0,9.0,73,0.00,,,0.00,Wunderground v.1.15,2013-01-19 14:00:00,
2013-01-19 09:01:00,37.9,30.0,29.96,SW,234,9.0,15.0,73,0.00,,,0.00,Wunderground v.1.15,2013-01-19 14:01:00,
2013-01-19 09:05:00,38.1,29.9,29.95,SW,217,9.0,15.0,72,0.00,,,0.00,Wunderground v.1.15,2013-01-19 14:05:00,
2013-01-19 09:06:00,38.1,29.9,29.96,WSW,246,10.0,15.0,72,0.00,,,0.00,Wunderground v.1.15,2013-01-19 14:06:00,
2013-01-19 09:07:00,38.2,30.0,29.96,SSW,213,9.0,15.0,72,0.00,,,0.00,Wunderground v.1.15,2013-01-19 14:07:00,
2013-01-19 09:08:00,38.1,29.9,29.96,SSW,209,10.0,15.0,72,0.00,,,0.00,Wunderground v.1.15,2013-01-19 14:08:00,
2013-01-19 09:11:00,38.1,29.9,29.96,SSW,213,10.0,15.0,72,0.00,,,0.00,Wunderground v.1.15,2013-01-19 14:11:00,
2013-01-19 09:12:00,38.0,29.8,29.96,SSW,213,10.0,15.0,72,0.00,,,0.00,Wunderground v.1.15,2013-01-19 14:12:00,
2013-01-19 09:14:00,38.0,30.1,29.96,SSW,206,10.0,15.0,73,0.00,,,0.00,Wunderground v.1.15,2013-01-19 14:14:00,
2013-01-19 09:18:00,37.9,30.0,29.96,SW,225,10.0,15.0,73,0.00,,,0.00,Wunderground v.1.15,2013-01-19 14:18:00,
2013-01-19 09:19:00,37.9,29.7,29.96,SSW,203,11.0,15.0,72,0.00,,,0.00,Wunderground v.1.15,2013-01-19 14:19:00,
2013-01-19 09:20:00,37.9,29.7,29.96,SW,220,11.0,15.0,72,0.00,,,0.00,Wunderground v.1.15,2013-01-19 14:20:00,
2013-01-19 09:23:00,37.9,29.7,29.96,SW,224,11.0,15.0,72,0.00,,,0.00,Wunderground v.1.15,2013-01-19 14:23:00,
2013-01-19 09:24:00,37.9,30.0,29.97,SW,218,12.0,15.0,73,0.00,,,0.00,Wunderground v.1.15,2013-01-19 14:24:00,
2013-01-19 09:26:00,37.9,29.7,29.96,SW,223,12.0,15.0,72,0.00,,,0.00,Wunderground v.1.15,2013-01-19 14:26:00,
2013-01-19 09:27:00,37.9,29.7,29.97,SW,223,12.0,15.0,72,0.00,,,0.00,Wunderground v.1.15,2013-01-19 14:27:00,
2013-01-19 09:28:00,37.9,29.7,29.97,SW,218,12.0,15.0,72,0.00,,,0.00,Wunderground v.1.15,2013-01-19 14:28:00,
2013-01-19 09:33:00,37.9,29.7,29.97,SW,217,11.0,15.0,72,0.00,,,0.00,Wunderground v.1.15,2013-01-19 14:33:00,
2013-01-19 09:34:00,37.9,29.7,29.97,SSW,210,11.0,15.0,72,0.00,,,0.00,Wunderground v.1.15,2013-01-19 14:34:00,
2013-01-19 09:35:00,37.9,29.7,29.97,SW,217,11.0,15.0,72,0.00,,,0.00,Wunderground v.1.15,2013-01-19 14:35:00,
2013-01-19 09:39:00,38.0,29.8,29.96,WSW,243,12.0,15.0,72,0.00,,,0.00,Wunderground v.1.15,2013-01-19 14:39:00,
2013-01-19 09:40:00,37.9,29.7,29.96,SW,216,11.0,15.0,72,0.00,,,0.00,Wunderground v.1.15,2013-01-19 14:40:00,
2013-01-19 09:41:00,37.9,29.7,29.96,SW,218,11.0,15.0,72,0.00,,,0.00,Wunderground v.1.15,2013-01-19 14:41:00,
2013-01-19 09:43:00,38.0,29.8,29.97,West,271,11.0,15.0,72,0.00,,,0.00,Wunderground v.1.15,2013-01-19 14:43:00,
2013-01-19 09:47:00,37.9,30.0,29.96,SW,223,10.0,15.0,73,0.00,,,0.00,Wunderground v.1.15,2013-01-19 14:47:00,
2013-01-19 09:48:00,38.0,29.8,29.97,SW,214,10.0,15.0,72,0.00,,,0.00,Wunderground v.1.15,2013-01-19 14:48:00,
2013-01-19 09:49:00,38.1,29.9,29.96,SW,225,10.0,15.0,72,0.00,,,0.00,Wunderground v.1.15,2013-01-19 14:49:00,
2013-01-19 09:53:00,38.1,29.9,29.97,SW,235,10.0,15.0,72,0.00,,,0.00,Wunderground v.1.15,2013-01-19 14:53:00,
2013-01-19 09:55:00,38.1,29.9,29.97,West,278,10.0,15.0,72,0.00,,,0.00,Wunderground v.1.15,2013-01-19 14:55:00,
2013-01-19 09:59:00,38.1,29.9,29.96,SW,218,11.0,15.0,72,0.00,,,0.00,Wunderground v.1.15,2013-01-19 14:59:00,
2013-01-19 10:00:00,38.1,30.2,29.96,SW,230,11.0,15.0,73,0.00,,,0.00,Wunderground v.1.15,2013-01-19 15:00:00,
2013-01-19 10:01:00,38.1,29.9,29.96,SSW,209,10.0,15.0,72,0.00,,,0.00,Wunderground v.1.15,2013-01-19 15:01:00,
2013-01-19 10:04:00,38.1,29.9,29.96,SSW,209,10.0,15.0,72,0.00,,,0.00,Wunderground v.1.15,2013-01-19 15:04:00,
2013-01-19 10:05:00,38.1,30.2,29.96,SSW,213,10.0,15.0,73,0.00,,,0.00,Wunderground v.1.15,2013-01-19 15:05:00,
2013-01-19 10:06:00,38.1,30.2,29.96,SW,217,10.0,15.0,73,0.00,,,0.00,Wunderground v.1.15,2013-01-19 15:06:00,
2013-01-19 10:09:00,38.1,30.2,29.96,SW,225,9.0,15.0,73,0.00,,,0.00,Wunderground v.1.15,2013-01-19 15:09:00,
2013-01-19 10:10:00,38.1,30.2,29.96,SSW,193,9.0,15.0,73,0.00,,,0.00,Wunderground v.1.15,2013-01-19 15:10:00,
2013-01-19 10:12:00,38.2,30.3,29.96,SW,223,9.0,15.0,73,0.00,,,0.00,Wunderground v.1.15,2013-01-19 15:12:00,
2013-01-19 10:13:00,38.2,30.3,29.96,WSW,247,9.0,15.0,73,0.00,,,0.00,Wunderground v.1.15,2013-01-19 15:13:00,
2013-01-19 10:15:00,38.2,30.3,29.96,WSW,250,9.0,15.0,73,0.00,,,0.00,Wunderground v.1.15,2013-01-19 15:15:00,
2013-01-19 10:17:00,38.2,30.3,29.96,SSW,204,8.0,15.0,73,0.00,,,0.00,Wunderground v.1.15,2013-01-19 15:17:00,
2013-01-19 10:18:00,38.3,30.4,29.96,SW,225,8.0,15.0,73,0.00,,,0.00,Wunderground v.1.15,2013-01-19 15:18:00,
2013-01-19 10:19:00,38.4,30.2,29.96,WSW,244,9.0,15.0,72,0.00,,,0.00,Wunderground v.1.15,2013-01-19 15:19:00,
2013-01-19 10:22:00,38.5,30.3,29.96,SW,228,9.0,15.0,72,0.00,,,0.00,Wunderground v.1.15,2013-01-19 15:22:00,
2013-01-19 10:24:00,38.5,30.3,29.96,SW,220,9.0,15.0,72,0.00,,,0.00,Wunderground v.1.15,2013-01-19 15:24:00,
2013-01-19 10:27:00,38.6,30.4,29.96,SW,230,9.0,15.0,72,0.00,,,0.00,Wunderground v.1.15,2013-01-19 15:27:00,
2013-01-19 10:31:00,38.7,30.4,29.96,SW,234,8.0,15.0,72,0.00,,,0.00,Wunderground v.1.15,2013-01-19 15:31:00,
2013-01-19 10:33:00,38.8,30.5,29.96,WSW,246,8.0,15.0,72,0.00,,,0.00,Wunderground v.1.15,2013-01-19 15:33:00,
2013-01-19 10:35:00,38.8,30.5,29.96,WSW,255,8.0,15.0,72,0.00,,,0.00,Wunderground v.1.15,2013-01-19 15:35:00,
2013-01-19 10:36:00,38.9,30.3,29.96,WSW,246,8.0,15.0,71,0.00,,,0.00,Wunderground v.1.15,2013-01-19 15:36:00,
2013-01-19 10:40:00,39.0,30.7,29.96,SW,219,8.0,15.0,72,0.00,,,0.00,Wunderground v.1.15,2013-01-19 15:40:00,
2013-01-19 10:41:00,39.2,30.6,29.95,WSW,251,8.0,15.0,71,0.00,,,0.00,Wunderground v.1.15,2013-01-19 15:41:00,
2013-01-19 10:45:00,39.5,30.9,29.96,SW,227,9.0,15.0,71,0.00,,,0.00,Wunderground v.1.15,2013-01-19 15:45:00,
2013-01-19 10:47:00,39.5,30.9,29.95,WSW,244,9.0,15.0,71,0.00,,,0.00,Wunderground v.1.15,2013-01-19 15:47:00,
2013-01-19 10:50:00,39.6,30.6,29.95,WSW,248,9.0,9.0,70,0.00,,,0.00,Wunderground v.1.15,2013-01-19 15:50:00,
2013-01-19 10:54:00,39.7,31.1,29.95,SW,220,8.0,15.0,71,0.00,,,0.00,Wunderground v.1.15,2013-01-19 15:54:00,
2013-01-19 10:55:00,39.7,30.7,29.95,SW,218,8.0,15.0,70,0.00,,,0.00,Wunderground v.1.15,2013-01-19 15:55:00,
2013-01-19 10:56:00,39.7,30.7,29.95,WSW,255,9.0,15.0,70,0.00,,,0.00,Wunderground v.1.15,2013-01-19 15:56:00,
2013-01-19 11:00:00,39.8,30.8,29.95,WSW,245,10.0,10.0,70,0.00,,,0.00,Wunderground v.1.15,2013-01-19 16:00:00,
2013-01-19 11:02:00,39.9,30.9,29.95,SW,221,11.0,15.0,70,0.00,,,0.00,Wunderground v.1.15,2013-01-19 16:02:00,
2013-01-19 11:05:00,40.0,31.0,29.95,SW,218,11.0,15.0,70,0.00,,,0.00,Wunderground v.1.15,2013-01-19 16:05:00,
2013-01-19 11:06:00,40.0,31.0,29.94,SW,225,11.0,15.0,70,0.00,,,0.00,Wunderground v.1.15,2013-01-19 16:06:00,
2013-01-19 11:07:00,40.0,31.0,29.94,SW,219,11.0,15.0,70,0.00,,,0.00,Wunderground v.1.15,2013-01-19 16:07:00,
2013-01-19 11:10:00,40.2,30.8,29.94,SSW,193,10.0,10.0,69,0.00,,,0.00,Wunderground v.1.15,2013-01-19 16:10:00,
2013-01-19 11:11:00,40.2,30.8,29.94,SSW,204,10.0,12.0,69,0.00,,,0.00,Wunderground v.1.15,2013-01-19 16:11:00,
2013-01-19 11:12:00,40.4,31.0,29.94,SW,232,10.0,15.0,69,0.00,,,0.00,Wunderground v.1.15,2013-01-19 16:12:00,
2013-01-19 11:16:00,40.6,30.9,29.94,West,262,10.0,15.0,68,0.00,,,0.00,Wunderground v.1.15,2013-01-19 16:16:00,
2013-01-19 11:17:00,40.6,31.2,29.94,WSW,239,10.0,15.0,69,0.00,,,0.00,Wunderground v.1.15,2013-01-19 16:17:00,
2013-01-19 11:18:00,40.6,30.9,29.94,SW,220,10.0,15.0,68,0.00,,,0.00,Wunderground v.1.15,2013-01-19 16:18:00,
2013-01-19 11:19:00,40.7,31.0,29.94,SW,225,10.0,10.0,68,0.00,,,0.00,Wunderground v.1.15,2013-01-19 16:19:00,
2013-01-19 11:22:00,40.8,31.1,29.93,SW,231,10.0,15.0,68,0.00,,,0.00,Wunderground v.1.15,2013-01-19 16:22:00,
2013-01-19 11:26:00,40.9,31.1,29.93,West,268,11.0,20.0,68,0.00,,,0.00,Wunderground v.1.15,2013-01-19 16:26:00,
2013-01-19 11:28:00,41.0,31.2,29.93,West,261,12.0,20.0,68,0.00,,,0.00,Wunderground v.1.15,2013-01-19 16:28:00,
2013-01-19 11:29:00,41.0,31.2,29.93,WSW,253,12.0,20.0,68,0.00,,,0.00,Wunderground v.1.15,2013-01-19 16:29:00,
2013-01-19 11:30:00,40.9,31.1,29.93,WSW,253,12.0,12.0,68,0.00,,,0.00,Wunderground v.1.15,2013-01-19 16:30:00,
2013-01-19 11:31:00,40.9,31.1,29.93,WSW,237,12.0,15.0,68,0.00,,,0.00,Wunderground v.1.15,2013-01-19 16:31:00,
2013-01-19 11:34:00,41.0,31.2,29.93,WSW,252,12.0,15.0,68,0.00,,,0.00,Wunderground v.1.15,2013-01-19 16:34:00,
2013-01-19 11:35:00,40.9,31.1,29.92,WSW,254,12.0,15.0,68,0.00,,,0.00,Wunderground v.1.15,2013-01-19 16:35:00,
2013-01-19 11:38:00,40.8,31.4,29.92,WSW,237,11.0,15.0,69,0.00,,,0.00,Wunderground v.1.15,2013-01-19 16:38:00,
2013-01-19 11:41:00,40.8,31.1,29.92,WSW,258,11.0,15.0,68,0.00,,,0.00,Wunderground v.1.15,2013-01-19 16:41:00,
2013-01-19 11:42:00,40.8,31.4,29.92,WSW,242,11.0,15.0,69,0.00,,,0.00,Wunderground v.1.15,2013-01-19 16:42:00,
2013-01-19 11:43:00,40.8,31.4,29.92,SSW,209,11.0,15.0,69,0.00,,,0.00,Wunderground v.1.15,2013-01-19 16:43:00,
2013-01-19 11:47:00,40.9,31.1,29.92,WSW,244,10.0,15.0,68,0.00,,,0.00,Wunderground v.1.15,2013-01-19 16:47:00,
2013-01-19 11:50:00,41.1,31.3,29.92,West,261,10.0,10.0,68,0.00,,,0.00,Wunderground v.1.15,2013-01-19 16:50:00,
2013-01-19 11:51:00,41.0,31.6,29.91,SW,223,10.0,15.0,69,0.00,,,0.00,Wunderground v.1.15,2013-01-19 16:51:00,
2013-01-19 11:53:00,41.0,31.2,29.91,SW,223,10.0,15.0,68,0.00,,,0.00,Wunderground v.1.15,2013-01-19 16:53:00,
2013-01-19 11:55:00,41.1,31.3,29.91,SW,221,10.0,15.0,68,0.00,,,0.00,Wunderground v.1.15,2013-01-19 16:55:00,
2013-01-19 11:58:00,41.0,31.6,29.90,SW,216,9.0,15.0,69,0.00,,,0.00,Wunderground v.1.15,2013-01-19 16:58:00,
2013-01-19 12:01:00,41.2,31.4,29.90,SW,220,10.0,15.0,68,0.00,,,0.00,Wunderground v.1.15,2013-01-19 17:01:00,
2013-01-19 12:03:00,41.2,31.4,29.90,SW,227,10.0,15.0,68,0.00,,,0.00,Wunderground v.1.15,2013-01-19 17:03:00,
2013-01-19 12:06:00,41.3,31.5,29.90,SW,214,10.0,15.0,68,0.00,,,0.00,Wunderground v.1.15,2013-01-19 17:06:00,
2013-01-19 12:07:00,41.3,31.5,29.90,SSW,204,10.0,15.0,68,0.00,,,0.00,Wunderground v.1.15,2013-01-19 17:07:00,
2013-01-19 12:11:00,41.4,31.6,29.89,SSW,213,9.0,15.0,68,0.00,,,0.00,Wunderground v.1.15,2013-01-19 17:11:00,
2013-01-19 12:14:00,41.5,31.7,29.89,SW,231,10.0,15.0,68,0.00,,,0.00,Wunderground v.1.15,2013-01-19 17:14:00,
2013-01-19 12:16:00,41.5,31.7,29.89,SW,223,10.0,15.0,68,0.00,,,0.00,Wunderground v.1.15,2013-01-19 17:16:00,
2013-01-19 12:22:00,41.5,31.7,29.89,SW,217,10.0,15.0,68,0.00,,,0.00,Wunderground v.1.15,2013-01-19 17:22:00,
2013-01-19 12:23:00,41.5,31.7,29.89,SW,219,10.0,15.0,68,0.00,,,0.00,Wunderground v.1.15,2013-01-19 17:23:00,
2013-01-19 12:27:00,41.5,31.4,29.88,SW,225,11.0,15.0,67,0.00,,,0.00,Wunderground v.1.15,2013-01-19 17:27:00,
2013-01-19 12:31:00,41.6,31.4,29.87,SW,218,12.0,15.0,67,0.00,,,0.00,Wunderground v.1.15,2013-01-19 17:31:00,
2013-01-19 12:33:00,41.6,31.4,29.87,SW,216,12.0,15.0,67,0.00,,,0.00,Wunderground v.1.15,2013-01-19 17:33:00,
2013-01-19 12:37:00,41.7,31.2,29.86,SSW,209,13.0,16.0,66,0.00,,,0.00,Wunderground v.1.15,2013-01-19 17:37:00,
2013-01-19 12:42:00,41.9,31.4,29.86,SW,219,15.0,20.0,66,0.00,,,0.00,Wunderground v.1.15,2013-01-19 17:42:00,
2013-01-19 12:45:00,41.9,31.4,29.86,SSW,193,15.0,20.0,66,0.00,,,0.00,Wunderground v.1.15,2013-01-19 17:45:00,
2013-01-19 12:48:00,42.0,31.5,29.86,SW,220,15.0,20.0,66,0.00,,,0.00,Wunderground v.1.15,2013-01-19 17:48:00,
2013-01-19 12:50:00,42.0,31.5,29.85,SW,217,15.0,15.0,66,0.00,,,0.00,Wunderground v.1.15,2013-01-19 17:50:00,
2013-01-19 12:54:00,42.1,31.6,29.86,SW,216,15.0,17.0,66,0.00,,,0.00,Wunderground v.1.15,2013-01-19 17:54:00,
2013-01-19 12:55:00,42.0,31.8,29.86,SW,224,15.0,17.0,67,0.00,,,0.00,Wunderground v.1.15,2013-01-19 17:55:00,
2013-01-19 13:00:00,42.0,31.5,29.85,SSW,213,14.0,14.0,66,0.00,,,0.00,Wunderground v.1.15,2013-01-19 18:00:00,
2013-01-19 13:03:00,42.0,31.5,29.85,SW,217,13.0,15.0,66,0.00,,,0.00,Wunderground v.1.15,2013-01-19 18:03:00,
2013-01-19 13:07:00,42.1,31.6,29.84,South,190,12.0,15.0,66,0.00,,,0.00,Wunderground v.1.15,2013-01-19 18:07:00,
2013-01-19 13:08:00,42.2,31.6,29.84,SSW,211,12.0,16.0,66,0.00,,,0.00,Wunderground v.1.15,2013-01-19 18:08:00,
2013-01-19 13:13:00,42.2,31.6,29.84,SW,218,12.0,15.0,66,0.00,,,0.00,Wunderground v.1.15,2013-01-19 18:13:00,
2013-01-19 13:17:00,42.3,31.7,29.84,SW,224,13.0,15.0,66,0.00,,,0.00,Wunderground v.1.15,2013-01-19 18:17:00,
2013-01-19 13:23:00,42.4,31.8,29.84,SW,223,13.0,16.0,66,0.00,,,0.00,Wunderground v.1.15,2013-01-19 18:23:00,
2013-01-19 13:25:00,42.5,31.6,29.83,SSW,203,13.0,16.0,65,0.00,,,0.00,Wunderground v.1.15,2013-01-19 18:25:00,
2013-01-19 13:28:00,42.6,32.0,29.83,SW,223,14.0,16.0,66,0.00,,,0.00,Wunderground v.1.15,2013-01-19 18:28:00,
2013-01-19 13:31:00,42.7,31.7,29.83,SSW,200,15.0,17.0,65,0.00,,,0.00,Wunderground v.1.15,2013-01-19 18:31:00,
2013-01-19 13:36:00,43.0,31.6,29.83,SSW,212,14.0,17.0,64,0.00,,,0.00,Wunderground v.1.15,2013-01-19 18:36:00,
2013-01-19 13:38:00,42.9,31.9,29.83,SW,220,14.0,17.0,65,0.00,,,0.00,Wunderground v.1.15,2013-01-19 18:38:00,
2013-01-19 13:42:00,42.9,31.9,29.83,SSW,213,14.0,20.0,65,0.00,,,0.00,Wunderground v.1.15,2013-01-19 18:42:00,
2013-01-19 13:47:00,43.2,31.8,29.82,SW,218,15.0,20.0,64,0.00,,,0.00,Wunderground v.1.15,2013-01-19 18:47:00,
2013-01-19 13:49:00,43.3,31.9,29.82,SW,218,15.0,20.0,64,0.00,,,0.00,Wunderground v.1.15,2013-01-19 18:49:00,
2013-01-19 13:53:00,43.3,32.3,29.82,WSW,241,14.0,15.0,65,0.00,,,0.00,Wunderground v.1.15,2013-01-19 18:53:00,
2013-01-19 13:54:00,43.3,32.3,29.82,SW,218,14.0,15.0,65,0.00,,,0.00,Wunderground v.1.15,2013-01-19 18:54:00,
2013-01-19 13:59:00,43.5,32.1,29.81,SSW,207,15.0,20.0,64,0.00,,,0.00,Wunderground v.1.15,2013-01-19 18:59:00,
2013-01-19 14:01:00,43.6,31.8,29.81,SW,221,15.0,19.0,63,0.00,,,0.00,Wunderground v.1.15,2013-01-19 19:01:00,
2013-01-19 14:06:00,43.7,32.3,29.81,SSW,209,17.0,23.0,64,0.00,,,0.00,Wunderground v.1.15,2013-01-19 19:06:00,
2013-01-19 14:07:00,43.7,32.3,29.81,SW,218,17.0,23.0,64,0.00,,,0.00,Wunderground v.1.15,2013-01-19 19:07:00,
2013-01-19 14:12:00,43.7,32.3,29.81,SSW,212,17.0,18.0,64,0.00,,,0.00,Wunderground v.1.15,2013-01-19 19:12:00,
2013-01-19 14:15:00,43.7,32.3,29.80,SSW,198,16.0,18.0,64,0.00,,,0.00,Wunderground v.1.15,2013-01-19 19:15:00,
2013-01-19 14:17:00,43.7,32.3,29.80,SW,223,16.0,19.0,64,0.00,,,0.00,Wunderground v.1.15,2013-01-19 19:17:00,
2013-01-19 14:22:00,43.7,32.3,29.80,WSW,258,16.0,18.0,64,0.00,,,0.00,Wunderground v.1.15,2013-01-19 19:22:00,
2013-01-19 14:24:00,43.7,32.3,29.80,SSW,210,16.0,18.0,64,0.00,,,0.00,Wunderground v.1.15,2013-01-19 19:24:00,
2013-01-19 14:27:00,43.8,32.4,29.80,SW,217,16.0,24.0,64,0.00,,,0.00,Wunderground v.1.15,2013-01-19 19:27:00,
2013-01-19 14:29:00,43.9,32.1,29.80,SW,220,16.0,25.0,63,0.00,,,0.00,Wunderground v.1.15,2013-01-19 19:29:00,
2013-01-19 14:34:00,44.0,32.2,29.79,SSW,210,17.0,18.0,63,0.00,,,0.00,Wunderground v.1.15,2013-01-19 19:34:00,
2013-01-19 14:36:00,44.1,32.3,29.79,SW,216,17.0,21.0,63,0.00,,,0.00,Wunderground v.1.15,2013-01-19 19:36:00,
2013-01-19 14:41:00,44.3,32.5,29.79,SSW,209,17.0,18.0,63,0.00,,,0.00,Wunderground v.1.15,2013-01-19 19:41:00,
2013-01-19 14:44:00,44.4,32.2,29.79,SW,216,19.0,22.0,62,0.00,,,0.00,Wunderground v.1.15,2013-01-19 19:44:00,
2013-01-19 14:48:00,44.5,32.3,29.79,WSW,254,17.0,22.0,62,0.00,,,0.00,Wunderground v.1.15,2013-01-19 19:48:00,
2013-01-19 14:53:00,44.9,32.3,29.78,SSW,200,16.0,25.0,61,0.00,,,0.00,Wunderground v.1.15,2013-01-19 19:53:00,
2013-01-19 14:57:00,44.8,32.6,29.78,WSW,248,19.0,25.0,62,0.00,,,0.00,Wunderground v.1.15,2013-01-19 19:57:00,
2013-01-19 15:00:00,44.8,32.6,29.78,SW,218,20.0,28.0,62,0.00,,,0.00,Wunderground v.1.15,2013-01-19 20:00:00,
2013-01-19 15:05:00,45.0,32.8,29.77,SW,216,19.0,28.0,62,0.00,,,0.00,Wunderground v.1.15,2013-01-19 20:05:00,
2013-01-19 15:08:00,44.8,32.6,29.77,SW,225,20.0,28.0,62,0.00,,,0.00,Wunderground v.1.15,2013-01-19 20:08:00,
2013-01-19 15:10:00,44.8,32.6,29.77,SW,219,20.0,20.0,62,0.00,,,0.00,Wunderground v.1.15,2013-01-19 20:10:00,
2013-01-19 15:14:00,44.7,32.5,29.77,SSW,209,19.0,20.0,62,0.00,,,0.00,Wunderground v.1.15,2013-01-19 20:14:00,
2013-01-19 15:17:00,44.6,32.4,29.76,SSW,213,19.0,22.0,62,0.00,,,0.00,Wunderground v.1.15,2013-01-19 20:17:00,
2013-01-19 15:23:00,44.8,32.6,29.76,West,265,19.0,24.0,62,0.00,,,0.00,Wunderground v.1.15,2013-01-19 20:23:00,
2013-01-19 15:28:00,44.8,32.6,29.76,SW,227,18.0,24.0,62,0.00,,,0.00,Wunderground v.1.15,2013-01-19 20:28:00,
2013-01-19 15:29:00,44.8,32.6,29.76,WSW,238,18.0,18.0,62,0.00,,,0.00,Wunderground v.1.15,2013-01-19 20:29:00,
2013-01-19 15:34:00,44.9,32.7,29.75,SW,216,18.0,20.0,62,0.00,,,0.00,Wunderground v.1.15,2013-01-19 20:34:00,
2013-01-19 15:35:00,45.0,32.8,29.75,SW,230,18.0,20.0,62,0.00,,,0.00,Wunderground v.1.15,2013-01-19 20:35:00,
2013-01-19 15:41:00,45.2,32.5,29.75,SW,223,18.0,20.0,61,0.00,,,0.00,Wunderground v.1.15,2013-01-19 20:41:00,
2013-01-19 15:47:00,45.1,32.8,29.75,WSW,253,19.0,27.0,62,0.00,,,0.00,Wunderground v.1.15,2013-01-19 20:47:00,
2013-01-19 15:50:00,45.0,32.8,29.75,SW,218,18.0,18.0,62,0.00,,,0.00,Wunderground v.1.15,2013-01-19 20:50:00,
2013-01-19 15:53:00,44.9,33.1,29.75,SSW,209,17.0,18.0,63,0.00,,,0.00,Wunderground v.1.15,2013-01-19 20:53:00,
2013-01-19 15:59:00,45.1,32.8,29.74,SW,223,16.0,19.0,62,0.00,,,0.00,Wunderground v.1.15,2013-01-19 20:59:00,
2013-01-19 16:02:00,45.1,32.8,29.74,SSW,198,16.0,16.0,62,0.00,,,0.00,Wunderground v.1.15,2013-01-19 21:02:00,
2013-01-19 16:05:00,45.2,32.9,29.74,SSW,210,16.0,23.0,62,0.00,,,0.00,Wunderground v.1.15,2013-01-19 21:05:00,
2013-01-19 16:08:00,45.2,32.9,29.74,WSW,242,16.0,23.0,62,0.00,,,0.00,Wunderground v.1.15,2013-01-19 21:08:00,
2013-01-19 16:11:00,45.1,33.2,29.74,SW,220,16.0,18.0,63,0.00,,,0.00,Wunderground v.1.15,2013-01-19 21:11:00,
2013-01-19 16:13:00,44.8,33.0,29.74,SW,218,15.0,18.0,63,0.00,,,0.00,Wunderground v.1.15,2013-01-19 21:13:00,
2013-01-19 16:17:00,44.7,33.3,29.74,SW,225,13.0,18.0,64,0.00,,,0.00,Wunderground v.1.15,2013-01-19 21:17:00,
2013-01-19 16:19:00,45.0,33.2,29.74,SSW,207,13.0,18.0,63,0.00,,,0.00,Wunderground v.1.15,2013-01-19 21:19:00,
2013-01-19 16:23:00,45.2,32.9,29.74,SSW,210,15.0,21.0,62,0.00,,,0.00,Wunderground v.1.15,2013-01-19 21:23:00,
2013-01-19 16:25:00,45.2,33.3,29.74,SW,227,16.0,21.0,63,0.00,,,0.00,Wunderground v.1.15,2013-01-19 21:25:00,
2013-01-19 16:31:00,45.1,33.2,29.75,WSW,253,15.0,16.0,63,0.00,,,0.00,Wunderground v.1.15,2013-01-19 21:31:00,
2013-01-19 16:32:00,45.1,33.2,29.75,WSW,238,15.0,17.0,63,0.00,,,0.00,Wunderground v.1.15,2013-01-19 21:32:00,
2013-01-19 16:37:00,45.1,33.2,29.75,SSW,213,14.0,21.0,63,0.00,,,0.00,Wunderground v.1.15,2013-01-19 21:37:00,
2013-01-19 16:38:00,45.1,33.2,29.75,SW,228,14.0,21.0,63,0.00,,,0.00,Wunderground v.1.15,2013-01-19 21:38:00,
2013-01-19 16:42:00,44.9,33.5,29.75,WSW,239,13.0,15.0,64,0.00,,,0.00,Wunderground v.1.15,2013-01-19 21:42:00,
2013-01-19 16:45:00,44.8,33.4,29.75,WSW,248,13.0,18.0,64,0.00,,,0.00,Wunderground v.1.15,2013-01-19 21:45:00,
2013-01-19 16:48:00,44.8,33.4,29.75,SW,223,12.0,18.0,64,0.00,,,0.00,Wunderground v.1.15,2013-01-19 21:48:00,
2013-01-19 16:53:00,45.2,33.7,29.75,West,259,15.0,22.0,64,0.00,,,0.00,Wunderground v.1.15,2013-01-19 21:53:00,
2013-01-19 16:58:00,45.1,33.6,29.75,SW,221,16.0,22.0,64,0.00,,,0.00,Wunderground v.1.15,2013-01-19 21:58:00,
2013-01-19 16:59:00,45.2,33.3,29.75,SW,218,16.0,16.0,63,0.00,,,0.00,Wunderground v.1.15,2013-01-19 21:59:00,
2013-01-19 17:04:00,45.2,33.3,29.74,SSW,211,15.0,20.0,63,0.00,,,0.00,Wunderground v.1.15,2013-01-19 22:04:00,
2013-01-19 17:06:00,45.3,33.4,29.74,SW,216,16.0,20.0,63,0.00,,,0.00,Wunderground v.1.15,2013-01-19 22:06:00,
2013-01-19 17:09:00,45.3,33.8,29.74,West,260,16.0,16.0,64,0.00,,,0.00,Wunderground v.1.15,2013-01-19 22:09:00,
2013-01-19 17:12:00,45.2,33.7,29.74,SW,220,17.0,17.0,64,0.00,,,0.00,Wunderground v.1.15,2013-01-19 22:12:00,
2013-01-19 17:18:00,44.9,33.5,29.75,SW,235,15.0,18.0,64,0.00,,,0.00,Wunderground v.1.15,2013-01-19 22:18:00,
2013-01-19 17:24:00,44.9,33.8,29.74,SW,228,14.0,17.0,65,0.00,,,0.00,Wunderground v.1.15,2013-01-19 22:24:00,
2013-01-19 17:25:00,44.8,33.7,29.74,SW,228,14.0,17.0,65,0.00,,,0.00,Wunderground v.1.15,2013-01-19 22:25:00,
2013-01-19 17:31:00,44.6,33.6,29.74,ESE,121,14.0,15.0,65,0.00,,,0.00,Wunderground v.1.15,2013-01-19 22:31:00,
2013-01-19 17:33:00,44.7,33.6,29.74,SW,228,14.0,23.0,65,0.00,,,0.00,Wunderground v.1.15,2013-01-19 22:33:00,
2013-01-19 17:37:00,44.7,33.6,29.73,SW,228,15.0,23.0,65,0.00,,,0.00,Wunderground v.1.15,2013-01-19 22:37:00,
2013-01-19 17:39:00,44.7,33.6,29.72,SW,223,16.0,24.0,65,0.00,,,0.00,Wunderground v.1.15,2013-01-19 22:39:00,
2013-01-19 17:42:00,44.9,33.8,29.72,SW,224,18.0,26.0,65,0.00,,,0.00,Wunderground v.1.15,2013-01-19 22:42:00,
2013-01-19 17:46:00,45.1,33.6,29.72,SW,216,20.0,26.0,64,0.00,,,0.00,Wunderground v.1.15,2013-01-19 22:46:00,
2013-01-19 17:48:00,45.1,33.6,29.72,SSW,203,21.0,26.0,64,0.00,,,0.00,Wunderground v.1.15,2013-01-19 22:48:00,
2013-01-19 17:54:00,45.2,33.7,29.71,SW,218,22.0,26.0,64,0.00,,,0.00,Wunderground v.1.15,2013-01-19 22:54:00,
2013-01-19 17:55:00,45.3,33.8,29.71,SW,220,22.0,26.0,64,0.00,,,0.00,Wunderground v.1.15,2013-01-19 22:55:00,
2013-01-19 17:59:00,45.3,33.8,29.71,SW,216,21.0,21.0,64,0.00,,,0.00,Wunderground v.1.15,2013-01-19 22:59:00,
2013-01-19 18:01:00,45.2,33.7,29.71,SW,217,21.0,23.0,64,0.00,,,0.00,Wunderground v.1.15,2013-01-19 23:01:00,
2013-01-19 18:06:00,44.9,33.8,29.71,WSW,237,20.0,23.0,65,0.00,,,0.00,Wunderground v.1.15,2013-01-19 23:06:00,
2013-01-19 18:13:00,45.0,33.9,29.70,SW,220,18.0,21.0,65,0.00,,,0.00,Wunderground v.1.15,2013-01-19 23:13:00,
2013-01-19 18:14:00,45.0,33.5,29.70,SW,230,19.0,21.0,64,0.00,,,0.00,Wunderground v.1.15,2013-01-19 23:14:00,
2013-01-19 18:19:00,45.0,33.5,29.70,SSW,210,19.0,21.0,64,0.00,,,0.00,Wunderground v.1.15,2013-01-19 23:19:00,
2013-01-19 18:23:00,44.8,33.7,29.69,SW,216,19.0,20.0,65,0.00,,,0.00,Wunderground v.1.15,2013-01-19 23:23:00,
2013-01-19 18:24:00,44.7,33.6,29.69,SW,216,19.0,23.0,65,0.00,,,0.00,Wunderground v.1.15,2013-01-19 23:24:00,
2013-01-19 18:28:00,44.9,33.8,29.69,SSW,211,20.0,26.0,65,0.00,,,0.00,Wunderground v.1.15,2013-01-19 23:28:00,
2013-01-19 18:30:00,44.9,33.8,29.69,SW,221,20.0,22.0,65,0.00,,,0.00,Wunderground v.1.15,2013-01-19 23:30:00,
2013-01-19 18:33:00,44.9,33.8,29.68,SSW,200,21.0,25.0,65,0.00,,,0.00,Wunderground v.1.15,2013-01-19 23:33:00,
2013-01-19 18:37:00,45.0,33.9,29.68,SW,223,21.0,25.0,65,0.00,,,0.00,Wunderground v.1.15,2013-01-19 23:37:00,
2013-01-19 18:44:00,44.9,33.8,29.68,SSW,210,20.0,24.0,65,0.00,,,0.00,Wunderground v.1.15,2013-01-19 23:44:00,
2013-01-19 18:50:00,44.8,33.7,29.68,SW,228,19.0,22.0,65,0.00,,,0.00,Wunderground v.1.15,2013-01-19 23:50:00,
2013-01-19 18:51:00,44.8,34.1,29.68,SW,218,19.0,22.0,66,0.00,,,0.00,Wunderground v.1.15,2013-01-19 23:51:00,
2013-01-19 18:55:00,44.9,33.8,29.70,SW,230,20.0,23.0,65,0.00,,,0.00,Wunderground v.1.15,2013-01-19 23:55:00,
2013-01-19 18:56:00,44.8,33.7,29.70,SW,228,20.0,23.0,65,0.00,,,0.00,Wunderground v.1.15,2013-01-19 23:56:00,
2013-01-19 19:02:00,44.6,33.9,29.70,SW,219,19.0,20.0,66,0.00,,,0.00,Wunderground v.1.15,2013-01-20 00:02:00,
2013-01-19 19:03:00,44.6,33.9,29.70,SW,231,19.0,20.0,66,0.00,,,0.00,Wunderground v.1.15,2013-01-20 00:03:00,
2013-01-19 19:08:00,44.4,34.1,29.72,West,259,18.0,21.0,67,0.00,,,0.00,Wunderground v.1.15,2013-01-20 00:08:00,
2013-01-19 19:10:00,44.5,34.2,29.71,WSW,249,18.0,24.0,67,0.00,,,0.00,Wunderground v.1.15,2013-01-20 00:10:00,
2013-01-19 19:15:00,44.6,34.3,29.70,West,260,20.0,26.0,67,0.00,,,0.00,Wunderground v.1.15,2013-01-20 00:15:00,
2013-01-19 19:18:00,44.5,34.2,29.70,SW,235,20.0,26.0,67,0.00,,,0.00,Wunderground v.1.15,2013-01-20 00:18:00,
2013-01-19 19:23:00,44.1,34.2,29.70,WSW,256,17.0,25.0,68,0.00,,,0.00,Wunderground v.1.15,2013-01-20 00:23:00,
2013-01-19 19:26:00,44.3,34.0,29.70,WSW,243,17.0,25.0,67,0.00,,,0.00,Wunderground v.1.15,2013-01-20 00:26:00,
2013-01-19 19:30:00,44.3,34.4,29.69,West,275,16.0,16.0,68,0.00,,,0.00,Wunderground v.1.15,2013-01-20 00:30:00,
2013-01-19 19:34:00,44.4,34.1,29.69,WSW,256,17.0,24.0,67,0.00,,,0.00,Wunderground v.1.15,2013-01-20 00:34:00,
2013-01-19 19:42:00,44.2,34.3,29.69,SW,232,17.0,18.0,68,0.00,,,0.00,Wunderground v.1.15,2013-01-20 00:42:00,
2013-01-19 19:43:00,44.2,34.3,29.68,WSW,252,17.0,18.0,68,0.00,,,0.00,Wunderground v.1.15,2013-01-20 00:43:00,
2013-01-19 19:48:00,44.4,34.1,29.68,WSW,249,17.0,21.0,67,0.00,,,0.00,Wunderground v.1.15,2013-01-20 00:48:00,
2013-01-19 19:50:00,44.4,34.5,29.68,SW,225,18.0,20.0,68,0.00,,,0.00,Wunderground v.1.15,2013-01-20 00:50:00,
2013-01-19 19:54:00,44.2,34.3,29.67,SW,224,18.0,20.0,68,0.00,,,0.00,Wunderground v.1.15,2013-01-20 00:54:00,
2013-01-19 19:58:00,44.1,34.2,29.67,WSW,239,18.0,23.0,68,0.00,,,0.00,Wunderground v.1.15,2013-01-20 00:58:00,
2013-01-19 20:03:00,44.4,34.5,29.67,SSW,211,18.0,24.0,68,0.00,,,0.00,Wunderground v.1.15,2013-01-20 01:03:00,
2013-01-19 20:05:00,44.3,34.4,29.67,WSW,258,18.0,24.0,68,0.00,,,0.00,Wunderground v.1.15,2013-01-20 01:05:00,
2013-01-19 20:09:00,44.1,34.2,29.67,West,269,17.0,25.0,68,0.00,,,0.00,Wunderground v.1.15,2013-01-20 01:09:00,
2013-01-19 20:16:00,44.0,34.5,29.67,West,266,16.0,25.0,69,0.00,,,0.00,Wunderground v.1.15,2013-01-20 01:16:00,
2013-01-19 20:18:00,44.0,34.5,29.67,WSW,257,16.0,25.0,69,0.00,,,0.00,Wunderground v.1.15,2013-01-20 01:18:00,
2013-01-19 20:21:00,43.8,34.3,29.66,WSW,255,16.0,17.0,69,0.00,,,0.00,Wunderground v.1.15,2013-01-20 01:21:00,
2013-01-19 20:25:00,43.9,34.4,29.66,WSW,255,16.0,22.0,69,0.00,,,0.00,Wunderground v.1.15,2013-01-20 01:25:00,
2013-01-19 20:27:00,43.8,34.3,29.66,SW,223,16.0,22.0,69,0.00,,,0.00,Wunderground v.1.15,2013-01-20 01:27:00,
2013-01-19 20:32:00,43.7,34.6,29.66,SSW,213,16.0,22.0,70,0.00,,,0.00,Wunderground v.1.15,2013-01-20 01:32:00,
2013-01-19 20:36:00,43.9,34.4,29.66,WSW,246,16.0,22.0,69,0.00,,,0.00,Wunderground v.1.15,2013-01-20 01:36:00,
2013-01-19 20:38:00,43.9,34.4,29.66,SW,225,18.0,22.0,69,0.00,,,0.00,Wunderground v.1.15,2013-01-20 01:38:00,
2013-01-19 20:41:00,43.9,34.4,29.66,West,268,18.0,23.0,69,0.00,,,0.00,Wunderground v.1.15,2013-01-20 01:41:00,
2013-01-19 20:47:00,43.7,34.6,29.65,WSW,250,17.0,23.0,70,0.00,,,0.00,Wunderground v.1.15,2013-01-20 01:47:00,
2013-01-19 20:49:00,43.5,34.4,29.65,SW,223,16.0,23.0,70,0.00,,,0.00,Wunderground v.1.15,2013-01-20 01:49:00,
2013-01-19 20:54:00,43.5,34.4,29.65,WSW,249,14.0,16.0,70,0.00,,,0.00,Wunderground v.1.15,2013-01-20 01:54:00,
2013-01-19 20:56:00,43.3,34.5,29.65,West,260,14.0,18.0,71,0.00,,,0.00,Wunderground v.1.15,2013-01-20 01:56:00,
2013-01-19 21:02:00,43.1,34.3,29.64,WSW,246,14.0,17.0,71,0.00,,,0.00,Wunderground v.1.15,2013-01-20 02:02:00,
2013-01-19 21:04:00,43.2,34.4,29.64,WSW,237,14.0,22.0,71,0.00,,,0.00,Wunderground v.1.15,2013-01-20 02:04:00,
2013-01-19 21:07:00,43.1,34.3,29.64,West,261,14.0,22.0,71,0.00,,,0.00,Wunderground v.1.15,2013-01-20 02:07:00,
2013-01-19 21:09:00,43.5,34.7,29.63,SW,227,15.0,15.0,71,0.00,,,0.00,Wunderground v.1.15,2013-01-20 02:09:00,
2013-01-19 21:12:00,43.4,34.6,29.63,WSW,246,16.0,16.0,71,0.00,,,0.00,Wunderground v.1.15,2013-01-20 02:12:00,
2013-01-19 21:17:00,43.3,34.5,29.62,SW,235,16.0,21.0,71,0.00,,,0.00,Wunderground v.1.15,2013-01-20 02:17:00,
2013-01-19 21:23:00,43.2,34.8,29.62,SW,228,15.0,17.0,72,0.00,,,0.00,Wunderground v.1.15,2013-01-20 02:23:00,
2013-01-19 21:25:00,43.1,34.7,29.62,SW,224,15.0,17.0,72,0.00,,,0.00,Wunderground v.1.15,2013-01-20 02:25:00,
2013-01-19 21:30:00,43.3,34.9,29.62,South,171,15.0,15.0,72,0.00,,,0.00,Wunderground v.1.15,2013-01-20 02:30:00,
2013-01-19 21:35:00,43.2,34.8,29.62,SW,231,16.0,19.0,72,0.00,,,0.00,Wunderground v.1.15,2013-01-20 02:35:00,
2013-01-19 21:38:00,43.3,34.9,29.62,West,259,16.0,19.0,72,0.00,,,0.00,Wunderground v.1.15,2013-01-20 02:38:00,
2013-01-19 21:42:00,43.0,34.6,29.62,WSW,257,15.0,16.0,72,0.00,,,0.00,Wunderground v.1.15,2013-01-20 02:42:00,
2013-01-19 21:45:00,43.1,34.7,29.62,WSW,252,16.0,20.0,72,0.00,,,0.00,Wunderground v.1.15,2013-01-20 02:45:00,
2013-01-19 21:47:00,43.0,34.9,29.62,WSW,255,16.0,20.0,73,0.00,,,0.00,Wunderground v.1.15,2013-01-20 02:47:00,
2013-01-19 21:50:00,43.0,34.9,29.62,WSW,237,16.0,16.0,73,0.00,,,0.00,Wunderground v.1.15,2013-01-20 02:50:00,
2013-01-19 21:53:00,43.1,35.0,29.61,WSW,250,15.0,17.0,73,0.00,,,0.00,Wunderground v.1.15,2013-01-20 02:53:00,
2013-01-19 21:56:00,43.2,34.8,29.61,SW,218,15.0,17.0,72,0.00,,,0.00,Wunderground v.1.15,2013-01-20 02:56:00,
2013-01-19 21:59:00,43.2,35.1,29.61,WSW,253,14.0,23.0,73,0.00,,,0.00,Wunderground v.1.15,2013-01-20 02:59:00,
2013-01-19 22:02:00,43.2,35.1,29.61,West,262,15.0,20.0,73,0.00,,,0.00,Wunderground v.1.15,2013-01-20 03:02:00,
2013-01-19 22:05:00,43.3,35.2,29.61,WSW,241,15.0,20.0,73,0.00,,,0.00,Wunderground v.1.15,2013-01-20 03:05:00,
2013-01-19 22:10:00,43.1,35.0,29.61,WSW,257,15.0,15.0,73,0.00,,,0.00,Wunderground v.1.15,2013-01-20 03:10:00,
2013-01-19 22:13:00,43.2,35.1,29.61,WSW,244,15.0,19.0,73,0.00,,,0.00,Wunderground v.1.15,2013-01-20 03:13:00,
2013-01-19 22:17:00,43.2,35.1,29.61,West,259,17.0,20.0,73,0.00,,,0.00,Wunderground v.1.15,2013-01-20 03:17:00,
2013-01-19 22:20:00,43.3,35.2,29.61,WSW,251,17.0,20.0,73,0.00,,,0.00,Wunderground v.1.15,2013-01-20 03:20:00,
2013-01-19 22:23:00,43.4,35.3,29.61,West,265,18.0,22.0,73,0.00,,,0.00,Wunderground v.1.15,2013-01-20 03:23:00,
2013-01-19 22:26:00,43.5,35.4,29.60,WSW,248,18.0,22.0,73,0.00,,,0.00,Wunderground v.1.15,2013-01-20 03:26:00,
2013-01-19 22:32:00,43.7,35.6,29.60,WNW,284,18.0,23.0,73,0.00,,,0.00,Wunderground v.1.15,2013-01-20 03:32:00,
2013-01-19 22:33:00,43.7,35.6,29.60,WSW,256,18.0,23.0,73,0.00,,,0.00,Wunderground v.1.15,2013-01-20 03:33:00,
2013-01-19 22:38:00,43.7,35.6,29.60,West,270,18.0,23.0,73,0.00,,,0.00,Wunderground v.1.15,2013-01-20 03:38:00,
2013-01-19 22:43:00,44.0,35.9,29.59,WSW,256,20.0,25.0,73,0.00,,,0.00,Wunderground v.1.15,2013-01-20 03:43:00,
2013-01-19 22:44:00,44.0,35.9,29.59,WNW,301,21.0,25.0,73,0.00,,,0.00,Wunderground v.1.15,2013-01-20 03:44:00,
2013-01-19 22:49:00,43.9,35.8,29.59,WSW,237,20.0,25.0,73,0.00,,,0.00,Wunderground v.1.15,2013-01-20 03:49:00,
2013-01-19 22:51:00,43.9,35.8,29.59,WSW,253,21.0,26.0,73,0.00,,,0.00,Wunderground v.1.15,2013-01-20 03:51:00,